Regional Weather Roundup
Issued by NWS New Orleans/Baton Rouge, LA

Home | Current Version | Previous Version | Text Only | Print | Product List | Glossary Off
Versions: 1 2 3 4 5 6 7 8 9 10 11 12 13 14 15 16 17 18 19 20 21 22 23 24 25 26 27 28 29 30 31 32 33 34 35 36 37 38 39 40 41 42 43 44 45 46 47 48 49 50

924
ASUS44 KLIX 191705
RWRLIX
NEW ORLEANS REGIONAL WEATHER ROUNDUP
NATIONAL WEATHER SERVICE NEW ORLEANS LA
1200 PM CDT SAT APR 19 2014

NOTE: "FAIR" INDICATES FEW OR NO CLOUDS BELOW 12,000 FEET WITH NO
      SIGNIFICANT WEATHER AND/OR OBSTRUCTIONS TO VISIBILITY.
      SKY/WX - SKY CONDITION AND SIGNIFICANT WEATHER.
      TMP - AIR TEMPERATURE.     DP    - DEWPOINT TEMPERATURE.
      RH  - RELATIVE HUMIDITY.   PRES  - PRESSURE.
      HI  - HEAT INDEX.          WCI   - WIND CHILL INDEX.

*  THESE STATIONS ARE NOT NWS OR FAA STATIONS AND ARE NOT UNDER
   NWS QUALITY CONTROL.

LAZ038-040-048-061>063-065>067-069-191800-
SOUTHEAST LOUISIANA

CITY           SKY/WX    TMP DP  RH WIND       PRES   REMARKS
N.O. AUDUBON   NOT AVBL
N.O. INTL ARPT MOSUNNY   70  54  56 VRB7      30.17F
N.O. LAKEFRONT SUNNY     66  55  67 W9        30.17F
N.O. DOWNTOWN*   N/A     70  48  46 N6        30.17F
SLIDELL        SUNNY     73  50  44 N12       30.14F
BATON ROUGE    SUNNY     74  52  46 VRB5      30.18F
BOOTHVILLE     SUNNY     65  55  70 N7        30.16S
BELLE CHASSE   MOSUNNY   72  50  45 NE8       30.16S
BOGALUSA*        N/A     74  49  42 N9G17     30.17F
GALLIANO*      MOSUNNY   71  53  53 N8        30.17S
NEW ROADS*       N/A     70  54  57 CALM      30.19F
GONZALES*        N/A     71  53  51 N3        30.18S
HAMMOND*       SUNNY     75  46  35 N8        30.18S
HOUMA*         SUNNY     72  52  49 N5        30.17S
PORT FOURCHON* SUNNY     68  54  60 NE8       30.18S

$$

MSZ070-080>082-191800-
SOUTHERN MISSISSIPPI

CITY           SKY/WX    TMP DP  RH WIND       PRES   REMARKS
MCCOMB         SUNNY     73  47  39 N7        30.18F
GULFPORT       SUNNY     75  49  39 N9G20     30.12F
BILOXI         SUNNY     73  51  46 N12       30.12F
PASCAGOULA     SUNNY     72  52  49 N17       30.10F

$$

COASTAL OBSERVATIONS
LAKE AND NEARSHORE STATIONS

STATION/POSITION TIME  TEMP    WIND        PRES    WAVE
                       AIR SEA DIR/SP/G            HT/PER
                 (UTC) (F)     (DEG/KT/KT) (MB)    (FT/S)
PASCAGOULA       1700   69      20/ 14/ 20 1018.7
WAVELAND YACHT   1700   69 67   30/ 13/ 15 1019.5
GRAND ISLE       1700   66 66   20/  7/ 10 1021.7
SOUTHWEST PASS   1700   67 58  360/ 11/ 12 1021.3
NEW CANAL        1700   65 64  270/  5/  7 1022.0
SHELL BEACH      1700   63 62   20/  5/  6 1020.8

OFFSHORE STATIONS

STATION/POSITION TIME  TEMP    WIND        PRES    WAVE
                       AIR SEA DIR/SP/G            HT/PER
                 (UTC) (F)     (DEG/KT/KT) (MB)    (FT/S)
64 S DAUPHIN ISL 1610   62 71  360/ 17/ 21 1019.7

$$




USA.gov is the U.S. government's official web portal to all federal, state and local government web resources and services.